Overview Statistics Trail Chart Weather Telemetry Raw packets
 

This is the latest recevied weather packets stored in our database for station/object DL6DJ-15. If no packets are shown the sender has not sent any weather packets the latest 10 day(s).

<< 1 2 3 4 >>
Time Temp. Humidity Pressure Rain* Wind** Luminosity Snow
1788617985 22.78° C 45% 1023.4 hPa - - - -
1788617685 22.78° C 44% 1023.3 hPa - - - -
1788617384 22.78° C 44% 1023.3 hPa - - - -
1788617084 22.78° C 44% 1023.3 hPa - - - -
1788616784 22.78° C 42% 1023.3 hPa - - - -
1788616484 22.78° C 45% 1023.3 hPa - - - -
1788616183 22.78° C 45% 1023.2 hPa - - - -
1788615883 22.78° C 45% 1023.3 hPa - - - -
1788615583 22.78° C 46% 1023.5 hPa - - - -
1788615283 23.33° C 44% 1023.3 hPa - - - -
1788614982 23.33° C 45% 1023.3 hPa - - - -
1788614682 23.33° C 46% 1023.5 hPa - - - -
1788614381 23.33° C 47% 1023.3 hPa - - - -
1788614081 23.33° C 49% 1023.4 hPa - - - -
1788613780 23.33° C 47% 1023.5 hPa - - - -
1788613480 22.78° C 47% 1023.6 hPa - - - -
1788613180 22.22° C 49% 1023.6 hPa - - - -
1788612880 22.22° C 50% 1023.5 hPa - - - -
1788612579 22.78° C 47% 1023.4 hPa - - - -
1788612279 23.89° C 47% 1023.4 hPa - - - -
1788611979 23.33° C 46% 1023.6 hPa - - - -
1788611678 22.78° C 47% 1023.5 hPa - - - -
1788611378 23.33° C 47% 1023.5 hPa - - - -
1788611077 24.44° C 47% 1023.4 hPa - - - -
1788610777 24.44° C 49% 1023.5 hPa - - - -

* Rain since midnight (hover to see other rain measurements)
** Current wind speed in m/s (hover to see current wind gust speed)